Raijin

operational
NORAD ID: 33494 Int'l Des: 2009-002 Owner: TOHO Country: J
LEOCIRCULARRETROGRADESSO

Raijinについて

説明を読み込み中...

リアルタイム位置

3D地球を読み込み中...

次回通過

高度履歴

Altitude vs Time

uPlot chart will show altitude changes over time

軌道要素

1 33494U 09002C 26061.45605991 .00000918 00000-0 14352-3 0 9994
2 33494 98.1604 325.6242 0003418 6.5523 353.5729 14.75211884918074
Epoch: Mar 2, 2026 • Age: 24 hours

現在のステータス

高度 656.3 km
速度 7.53 km/s
衛星直下点 63.91°N, 4.99°W
打ち上げ日 Jan 23, 2009
運用期間 17.1 years
タイプ other

技術仕様

分類 Payload
質量 20.00 kg
乾燥質量 20.00 kg
総質量 20.00 kg
長さ 0.40 m
直径 0.30 m
スパン 0.40 m
形状 Box + Ant
製造者 TOHO
バスタイプ SpriteSat
フェーズステータス In Orbit
所有者/国 TOHO/J

大規模コンステレーション

Loading constellations...